Home > Weather > Annapolis > Past weeks

Flag for U.S.A. Weather for the Past 2 Weeks in Annapolis, Maryland, U.S.A.

Now
27 °F

Clear.


Feels Like: 20 °F
Forecast: 16 / 26 °F
Wind: 7 mph from Southeast

Location: Annapolis - United States Naval Academy

Current Time: Feb 12, 2016 at 8:35:44 PM

Latest Report: Feb 12, 2016 at 7:54 PM


Visibility: 10 mi

Pressure: 30.02 "Hg

Humidity: 69%

Dew point: 18 °F

Location of AnnapolisLocation

Historic Weather in Annapolis — Graph

°F

Annapolis Temperature Yesterday

Maximum temperature yesterday: 28 °F (at 2:54 PM)
Minimum temperature yesterday: 21 °F (at 6:54 AM)
Average temperature yesterday: 24 °F

High & Low Weather Summary for the Past Weeks

 TemperatureHumidityPressure
High58 °F (Feb 1, 9:54 AM)100% (Feb 1, 5:54 PM)30.47 "Hg (Feb 1, 5:54 PM)
Low18 °F (Feb 12, 6:54 AM)35% (Feb 11, 2:54 PM)29.54 "Hg (Jan 29, 4:54 AM)
Average38 °F69%30.00 "Hg
* Reported Jan 28 6:54 PM — Feb 12 6:54 PM, Annapolis, Weather by CustomWeather, © 2016

Note: Actual official high and low records may vary slightly from our data, if they occured in-between our weather recording intervals... More about our weather records

Advertising

Annapolis Weather History for the Previous 24 Hours

 ConditionsComfort  
Time TempWeatherWind HumidityBarometerVisibility
6:54 PM
Fri, Feb 12
27 °FOvercast.9 mph69%30.03 "Hg9 mi
5:54 PM27 °FMostly cloudy.9 mph63%30.03 "Hg10 mi
3:54 PM27 °FOvercast.8 mph53%30.06 "Hg10 mi
2:54 PM27 °FOvercast.14 mph51%30.09 "Hg10 mi
1:54 PM26 °FPassing clouds.12 mph52%30.13 "Hg10 mi
12:54 PM25 °FOvercast.9 mph53%30.18 "Hg10 mi
11:54 AM25 °FScattered clouds.10 mph48%30.23 "Hg10 mi
10:54 AM26 °FSunny.No wind40%30.27 "Hg10 mi
9:54 AM22 °FSunny.No wind42%30.30 "Hg10 mi
8:54 AM22 °FSunny.3 mph48%30.32 "Hg10 mi
7:54 AM19 °FSunny.5 mph52%30.33 "Hg10 mi
6:54 AM18 °FClear.5 mph52%30.32 "Hg10 mi
5:54 AM19 °FClear.No wind52%30.33 "Hg10 mi
4:54 AM19 °FClear.3 mph47%30.32 "Hg10 mi
3:54 AM20 °FClear.5 mph50%30.32 "Hg10 mi
2:54 AM21 °FClear.5 mph50%30.32 "Hg10 mi
1:54 AM20 °FClear.6 mph45%30.33 "Hg10 mi
12:54 AM21 °FClear.10 mph43%30.33 "Hg10 mi
11:54 PM
Thu, Feb 11
22 °FClear.8 mph44%30.32 "Hg10 mi
10:54 PM22 °FClear.7 mph44%30.33 "Hg10 mi
9:54 PM23 °FClear.8 mph42%30.32 "Hg10 mi
8:54 PM24 °FClear.14 mph42%30.29 "Hg10 mi
Weather by CustomWeather, © 2016

See weather overviewHow to use our weather pages